IRIDIUM 33 DEB, 38241

Orbit data source: Space-Track

IRIDIUM 33 DEB, 38241 is space debris in LEO originally from a launch on Sun, 14 Sep 1997 UTC launched from the Tyuratam Missile And Space Complex (TTMTR). The debris from Iridium 33, an American commercial communications satellite, has been tracked extensively since its accidental collision with the defunct Russian satellite Cosmos 2251 in 2009. This event, occurring at high speed in low Earth orbit (LEO), generated thousands of pieces of space debris, significantly increasing the risk of further collisions. The Iridium 33 debris cloud has impacted space traffic management and orbital debris mitigation strategies, making it a subject of ongoing study in space situational awareness.

Loading next visibility...
Identifier
38241, 1997-051ZR
Orbit
LEO
Country
Flag of USUS
Related business
Manufacturer
Unknown
Mission
Spacecraft
Bus & Motor
Unknown
Mass
Unknown
Launch date (UTC)
1997-09-14 (28 years ago)
Launch vehicle
Unknown
Launch site
Tyuratam Missile And Space Complex (TTMTR)
Object type
Payload
Rocket body
Debris
Shape & HBR
Unknown shape, 0.1 m
Radar Cross Section
Small (<0.1 m²)

Expand to show TLE details & history
Last TLE update: 3 days ago

TLE from 3 days ago
0 IRIDIUM 33 DEB
1 38241U 97051ZR  25300.48319870  .00003688  00000-0  86221-3 0  9997
2 38241  86.3264  10.9900 0003363 177.2883 182.8343 14.54443449595289
Epoch: 2025-10-27T11:35Z
TLE epoch observation values (Epoch: 2025-10-27T11:35:48.367Z)
Latitude
-0.00001°
Longitude
160.95407°
Altitude
716.633 km
Speed
7.496 km/s
True Right ascension
00h 43m 57s
True Declination
0° 00' 00"
Sunlit
Object was in full shadow at epoch
Visualization orbit readout
Latitude
Unknown
Longitude
Unknown
Altitude
Unknown
Speed
Unknown
Apparent Right ascension
Unknown
Apparent Declination
Unknown
Sunlit
N/A
Visualization observer readout
Local Sidereal Time
12:12:08
Azimuth
Unknown
Elevation
Unknown
Doppler factor
Unknown
Orbital elements
Apogee altitude
710.493 km
Perigee altitude
705.727 km
Semi-major axis
7,086.247 km
Eccentricity
0.00034
Inclination
86.3264°
RAAN
10.99°
Arg. of periapsis
177.2883°
True anomaly
182.8324°
Mean anomaly
182.8343°
Eccentric anomaly
182.83335°
Mean motion
3.63847 °/min
Orbital period
98.94 mins
BSTAR
0.00086221
Loading maneuver chart data...
Computing Atmospheric mass density...

Documentation

Showing up to 5 results
|